Simultaneous Nadir Overpasses (SNOs) Predictions

Prediction of SNOs between METOP-B and TERRA Satellite Orbit:

Table of predicted SNOs for the next 14.0 days since TLE Epoch: 9/11/2021
Index Date (METOP-B) Time (METOP-B) Lat,Lon (METOP-B) SZA (METOP-B ) Date (TERRA) Time (TERRA) Lat,Lon (TERRA) SZA (TERRA ) Distance(km) Time Diff (sec)
1 09/11/2021 19:47:33 81.25, -72.22 79.64 09/11/2021 19:47:52 81.26, -72.09 79.67 2.36 19
2 09/11/2021 20:38:13 -81.26, 95.34 100.32 09/11/2021 20:37:19 -81.26, 95.44 100.33 1.71 54
3 09/14/2021 15:21:54 81.26, -5.70 80.76 09/14/2021 15:22:04 81.25, -5.78 80.75 1.39 10
4 09/14/2021 16:12:33 -81.27, 162.30 99.15 09/14/2021 16:11:30 -81.27, 162.16 99.20 2.38 63
5 09/17/2021 10:05:38 -81.23,-107.58 98.28 09/17/2021 10:06:52 -81.22,-107.57 98.25 1.73 74
6 09/17/2021 10:56:17 81.25, 60.42 81.83 09/17/2021 10:56:17 81.24, 60.48 81.83 1.29 0
7 09/17/2021 11:46:56 -81.26,-131.54 98.08 09/17/2021 11:45:43 -81.26,-131.55 98.11 0.11 73
8 09/20/2021 05:39:59 -81.25, -40.66 97.10 09/20/2021 05:41:03 -81.25, -40.58 97.06 1.63 64
9 09/20/2021 06:30:39 81.25, 126.90 82.95 09/20/2021 06:30:29 81.25, 127.08 82.97 2.99 10
10 09/23/2021 01:14:21 -81.24, 25.47 96.02 09/23/2021 01:15:15 -81.24, 25.63 95.98 2.71 54



Historial Predications of SNOs between METOP-B and TERRA
